Location: Waning Moon II Observatory
(30.3730°N, 89.7620°W)
Time: 12:13:25
(UTC-05:00)

Meteor 1-21 - Visible Passes

Search period start: 24 May 2015 00:00
Search period end: 03 June 2015 00:00
Orbit: 845 x 887 km, 81.2° (Epoch: 23 May)

Date Brightness Start Highest point End Pass type
(mag) Time Alt. Az. Time Alt. Az. Time Alt. Az.
24 May 6.6 00:25:10 14° WNW 00:25:11 14° WNW 00:28:01 10° NW visible
24 May 4.7 22:35:12 51° NE 22:35:12 51° NE 22:39:50 10° NNE visible
25 May 6.6 00:17:30 14° WNW 00:17:56 14° WNW 00:20:41 10° NW visible
25 May 4.5 22:27:30 56° ENE 22:27:30 56° ENE 22:32:34 10° NNE visible
26 May 6.6 00:09:48 14° W 00:10:39 14° WNW 00:13:22 10° NW visible
26 May 4.3 22:19:45 60° E 22:19:45 60° E 22:25:18 10° NNE visible
27 May 6.7 00:02:02 13° W 00:03:23 14° WNW 00:06:02 10° NW visible
27 May 4.2 22:11:57 60° ESE 22:12:17 61° E 22:18:02 10° NNE visible
27 May 6.7 23:54:15 12° W 23:56:07 14° WNW 23:58:43 10° NW visible
28 May 4.3 22:04:06 54° SE 22:05:01 62° E 22:10:46 10° NNE visible
28 May 6.7 23:46:23 11° W 23:48:51 13° WNW 23:51:23 10° NW visible
29 May 4.3 21:56:10 46° SSE 21:57:44 63° E 22:03:29 10° NNE visible
29 May 6.8 23:38:44 10° W 23:41:35 13° WNW 23:44:03 10° NW visible
30 May 4.3 21:48:11 36° SSE 21:50:27 63° E 21:56:13 10° NNE visible
30 May 6.8 23:31:32 10° W 23:34:19 13° WNW 23:36:43 10° NW visible
31 May 4.3 21:40:05 28° SSE 21:43:11 64° E 21:48:56 10° NNE visible
31 May 6.9 23:24:20 10° W 23:27:03 13° WNW 23:29:22 10° NW visible
01 Jun 4.3 21:31:54 20° S 21:35:54 65° E 21:41:40 10° NNE visible
01 Jun 6.9 23:17:08 10° W 23:19:47 13° WNW 23:22:02 10° NW visible
02 Jun 4.3 21:23:34 14° S 21:28:38 66° E 21:34:24 10° NNE visible
02 Jun 6.9 23:09:56 10° W 23:12:31 12° WNW 23:14:42 10° NW visible
